This is the latest recevied weather packets stored in our database for station/object KN6KS. If no packets are shown the sender has not sent any weather packets the latest 10 day(s).
| Time | Temp. | Humidity | Pressure | Rain* | Wind** | Luminosity | Snow |
|---|---|---|---|---|---|---|---|
| 1778031743 | 15° C | 59% | 1012.6 hPa | 0 mm | - | 52 W/m² | - |
| 1778031441 | 14.44° C | 57% | 1012.7 hPa | 0 mm | - | 74 W/m² | - |
| 1778031138 | 15° C | 56% | 1012.7 hPa | 0 mm | - | 58 W/m² | - |
| 1778030834 | 15° C | 56% | 1012.8 hPa | 0 mm | - | 107 W/m² | - |
| 1778030531 | 15° C | 56% | 1012.9 hPa | 0 mm | - | 134 W/m² | - |
| 1778030228 | 15° C | 58% | 1012.7 hPa | 0 mm | - | 66 W/m² | - |
| 1778029924 | 15° C | 58% | 1012.9 hPa | 0 mm | - | 85 W/m² | - |
| 1778029623 | 15° C | 58% | 1012.7 hPa | 0 mm | - | 65 W/m² | - |
| 1778029320 | 15.56° C | 57% | 1012.6 hPa | 0 mm | - | 173 W/m² | - |
| 1778029017 | 15.56° C | 55% | 1012.8 hPa | 0 mm | - | 193 W/m² | - |
| 1778028714 | 15.56° C | 55% | 1012.6 hPa | 0 mm | - | 215 W/m² | - |
| 1778028410 | 15.56° C | 56% | 1012.4 hPa | 0 mm | - | 221 W/m² | - |
| 1778028107 | 15.56° C | 56% | 1012.5 hPa | 0 mm | - | 243 W/m² | - |
| 1778027803 | 15.56° C | 54% | 1012.1 hPa | 0 mm | - | 256 W/m² | - |
| 1778027500 | 15.56° C | 55% | 1012.5 hPa | 0 mm | - | 279 W/m² | - |
| 1778027196 | 15.56° C | 54% | 1012.1 hPa | 0 mm | - | 281 W/m² | - |
| 1778026892 | 15.56° C | 55% | 1012.1 hPa | 0 mm | - | 308 W/m² | - |
| 1778026588 | 15.56° C | 54% | 1011.9 hPa | 0 mm | - | 326 W/m² | - |
| 1778026285 | 15.56° C | 53% | 1011.8 hPa | 0 mm | - | 347 W/m² | - |
| 1778025983 | 16.67° C | 51% | 1011.9 hPa | 0 mm | - | 358 W/m² | - |
| 1778025680 | 16.67° C | 52% | 1012 hPa | 0 mm | - | 378 W/m² | - |
| 1778025378 | 16.67° C | 51% | 1011.9 hPa | 0 mm | - | 420 W/m² | - |
| 1778025075 | 16.11° C | 50% | 1011.8 hPa | 0 mm | - | 505 W/m² | - |
| 1778024772 | 16.11° C | 52% | 1011.7 hPa | 0 mm | - | 161 W/m² | - |
| 1778024468 | 16.67° C | 50% | 1011.7 hPa | 0 mm | - | 157 W/m² | - |
* Rain latest hour (hover to see other rain measurements)
** Current wind speed in m/s (hover to see current wind gust speed)